Location: Austin
(30.3000°N, 97.7500°W)
Time: 00:42:38
(UTC-06:00)

Cosmos 1606 - Pass Details

Date: 04 November 2025
Orbit: 318 x 323 km, 82.5° (Epoch: 14 November)

Event Time Altitude Azimuth Distance (km) Brightness Sun altitude
Rises 18:37:53 0° 201° (SSW) 2,119 6.3 -12.8°
Reaches altitude 10° 18:39:55 10° 211° (SSW) 1,284 5.3 -13.2°
Maximum altitude 18:42:27 32° 278° (W) 608 3.8 -13.7°
Drops below altitude 10° 18:45:01 10° 345° (NNW) 1,290 4.8 -14.3°
Sets 18:47:04 0° 356° (N) 2,130 5.8 -14.7°
